Location: Unspecified
(17.6330°N, 0.0000°E)
Time: 19:37:26
(UTC+00:00)

N. Korean satellite - Pass Details

Date: 06 November 2020
Orbit: 453 x 503 km, 97.2° (Epoch: 03 December)

Event Time Altitude Azimuth Distance (km) Brightness Sun altitude
Rises 17:46:29 0° 203° (SSW) 2,536 10.8 -5.5°
Reaches altitude 10° 17:49:21 10° 229° (SW) 1,647 10.5 -6.2°
Maximum altitude 17:51:16 14° 262° (W) 1,409 10.5 -6.6°
Drops below altitude 10° 17:53:10 10° 295° (WNW) 1,633 10.1 -7.1°
Sets 17:56:00 0° 322° (NW) 2,498 10.5 -7.7°
